| time (UTC) | temp F | wind direction | speed knots | gust knots | rain 1hr in | rain 24hr in | rain mn in | humidity % | barometer mb |
| 20260503220051 | 48 | 248 | 3.5 | 11.3 | 0.00 | 0.00 | 0.00 | 39 | 1018.0 |
| 20260503214554 | 49 | 246 | 4.3 | 13.0 | 0.00 | 0.00 | 0.00 | 37 | 1017.9 |
| 20260503213117 | 49 | 217 | 2.6 | 12.2 | 0.00 | 0.00 | 0.00 | 40 | 1018.0 |
| 20260503211613 | 50 | 257 | 4.3 | 13.0 | 0.00 | 0.00 | 0.00 | 36 | 1018.0 |
| 20260503210050 | 50 | 233 | 4.3 | 9.6 | 0.00 | 0.00 | 0.00 | 38 | 1018.1 |
| 20260503204601 | 51 | 215 | 6.1 | 9.6 | 0.00 | 0.00 | 0.00 | 36 | 1018.1 |
| 20260503203057 | 51 | 194 | 3.5 | 8.7 | 0.00 | 0.00 | 0.00 | 36 | 1018.1 |
| 20260503201559 | 51 | 271 | 1.7 | 11.3 | 0.00 | 0.00 | 0.00 | 38 | 1018.3 |
| 20260503200047 | 50 | 254 | 4.3 | 11.3 | 0.00 | 0.00 | 0.00 | 38 | 1018.3 |
| 20260503194549 | 49 | 265 | 6.1 | 13.9 | 0.00 | 0.00 | 0.00 | 40 | 1018.5 |
| 20260503193049 | 49 | 286 | 4.3 | 10.4 | 0.00 | 0.00 | 0.00 | 38 | 1018.8 |
| 20260503191600 | 49 | 268 | 3.5 | 11.3 | 0.00 | 0.00 | 0.00 | 36 | 1018.8 |
| 20260503190047 | 49 | 232 | 3.5 | 8.7 | 0.00 | 0.00 | 0.00 | 40 | 1018.8 |
| 20260503184611 | 48 | 296 | 3.5 | 12.2 | 0.00 | 0.00 | 0.00 | 41 | 1018.8 |
| 20260503183103 | 49 | 242 | 4.3 | 12.2 | 0.00 | 0.00 | 0.00 | 40 | 1019.2 |
| 20260503181553 | 47 | 240 | 3.5 | 11.3 | 0.00 | 0.00 | 0.00 | 48 | 1019.3 |
| 20260503180054 | 46 | 0 | 2.6 | 9.6 | 0.00 | 0.00 | 0.00 | 43 | 1019.2 |
| 20260503174608 | 45 | 264 | 6.1 | 13.0 | 0.00 | 0.00 | 0.00 | 45 | 1019.3 |
| 20260503173114 | 46 | 236 | 3.5 | 11.3 | 0.00 | 0.00 | 0.00 | 43 | 1019.3 |
| 20260503171552 | 43 | 273 | 1.7 | 17.4 | 0.00 | 0.00 | 0.00 | 49 | 1019.4 |
| 20260503100105 | 25 | 348 | 1.7 | 12.2 | 0.00 | 0.00 | 0.00 | 88 | 1016.5 |
| 20260503081557 | 26 | 186 | 0.9 | 7.8 | 0.00 | 0.00 | 0.00 | 86 | 1015.9 |
| 20260503071607 | 27 | 274 | 3.5 | 10.4 | 0.00 | 0.00 | 0.00 | 85 | 1015.3 |
| 20260503070103 | 27 | 281 | 3.5 | 13.0 | 0.00 | 0.00 | 0.00 | 85 | 1015.3 |
| 20260503054558 | 29 | 263 | 1.7 | 8.7 | 0.00 | 0.00 | 0.00 | 85 | 1015.7 |
| 20260503053046 | 29 | 256 | 1.7 | 6.1 | 0.00 | 0.00 | 0.00 | 85 | 1015.8 |
| 20260503051551 | 29 | 279 | 3.5 | 8.7 | 0.00 | 0.00 | 0.00 | 84 | 1015.8 |
| 20260503050056 | 30 | 281 | 2.6 | 6.1 | 0.00 | 0.00 | 0.00 | 84 | 1015.8 |
| 20260503044547 | 30 | 47 | 0.9 | 8.7 | 0.00 | 0.00 | 0.00 | 84 | 1015.9 |
| 20260503043048 | 31 | 269 | 0.9 | 8.7 | 0.00 | 0.00 | 0.00 | 83 | 1015.9 |
| 20260503041548 | 31 | 274 | 0.0 | 5.2 | 0.00 | 0.00 | 0.00 | 84 | 1016.0 |
| 20260503040053 | 31 | 275 | 0.9 | 2.6 | 0.00 | 0.00 | 0.00 | 84 | 1016.2 |
| 20260503034551 | 31 | 305 | 0.9 | 4.3 | 0.00 | 0.00 | 0.00 | 82 | 1016.0 |
| 20260503033057 | 31 | 259 | 0.0 | 4.3 | 0.00 | 0.00 | 0.00 | 81 | 1016.1 |
| 20260503031547 | 32 | 0 | 1.7 | 3.5 | 0.00 | 0.00 | 0.00 | 80 | 1016.1 |
| 20260503030051 | 32 | 12 | 1.7 | 7.8 | 0.00 | 0.00 | 0.00 | 79 | 1016.2 |
| 20260503024551 | 32 | 70 | 3.5 | 8.7 | 0.00 | 0.00 | 0.00 | 76 | 1016.5 |
| 20260503023050 | 33 | 264 | 0.9 | 7.8 | 0.00 | 0.00 | 0.00 | 75 | 1016.4 |
| 20260503021549 | 33 | 33 | 1.7 | 8.7 | 0.00 | 0.00 | 0.00 | 74 | 1016.4 |
| 20260503020048 | 32 | 0 | 0.9 | 3.5 | 0.00 | 0.00 | 0.00 | 75 | 1016.2 |
| 20260503014602 | 33 | 5 | 1.7 | 3.5 | 0.00 | 0.00 | 0.00 | 74 | 1016.2 |
| 20260503013050 | 33 | 259 | 1.7 | 7.0 | 0.00 | 0.00 | 0.00 | 74 | 1016.2 |
| 20260503011601 | 33 | 275 | 2.6 | 7.8 | 0.00 | 0.00 | 0.00 | 74 | 1016.1 |
| 20260503010047 | 33 | 258 | 3.5 | 8.7 | 0.00 | 0.00 | 0.00 | 73 | 1016.0 |
| 20260503004548 | 34 | 252 | 4.3 | 10.4 | 0.00 | 0.00 | 0.00 | 72 | 1015.9 |
| 20260503003101 | 35 | 261 | 1.7 | 9.6 | 0.00 | 0.00 | 0.00 | 69 | 1015.9 |
| 20260503001545 | 35 | 0 | 2.6 | 7.8 | 0.00 | 0.00 | 0.00 | 67 | 1015.7 |
| 20260503000047 | 35 | 265 | 3.5 | 7.8 | 0.00 | 0.00 | 0.00 | 66 | 1015.6 |
| 20260502234607 | 36 | 274 | 3.5 | 10.4 | 0.00 | 0.00 | 0.00 | 65 | 1015.6 |
| 20260502233048 | 36 | 253 | 3.5 | 11.3 | 0.00 | 0.00 | 0.00 | 64 | 1015.4 |
| 20260502231551 | 36 | 252 | 3.5 | 8.7 | 0.00 | 0.00 | 0.00 | 64 | 1015.3 |
| 20260502230059 | 37 | 270 | 4.3 | 12.2 | 0.00 | 0.00 | 0.00 | 62 | 1015.4 |
| 20260502224556 | 37 | 259 | 3.5 | 13.0 | 0.00 | 0.00 | 0.00 | 62 | 1015.3 |
| 20260502223059 | 38 | 303 | 1.7 | 8.7 | 0.00 | 0.00 | 0.00 | 62 | 1015.3 |
| 20260502221549 | 38 | 257 | 2.6 | 8.7 | 0.00 | 0.00 | 0.00 | 60 | 1015.2 |